Regional Weather Roundup
Issued by NWS Mt. Holly, NJ

Home | Current Version | Previous Version | Text Only | Print | Product List | Glossary On
Versions: 1 2 3 4 5 6 7 8 9 10 11 12 13 14 15 16 17 18 19 20 21 22 23 24 25 26 27 28
000
ASUS41 KPHI 271212
RWRPHI

REGIONAL WEATHER ROUNDUP
NATIONAL WEATHER SERVICE MOUNT HOLLY NJ
800 AM EDT WED JUL 27 2016

NOTE:  "FAIR" INDICATES FEW OR NO CLOUDS BELOW 12,000 FEET WITH NO
SIGNIFICANT WEATHER AND/OR OBSTRUCTIONS TO VISIBILITY.

 * = STATION DOES NOT REPORT PRECIPITATION (E.G. RAIN, SNOW, ETC.)
        OR FOG.

NJZ015>026-271300-
SOUTHERN NEW JERSEY

CITY           SKY/WX    TMP DP  RH WIND       PRES   REMARKS
POMONA         PTSUNNY   79  70  74 E3        29.94S
6HR MIN TEMP:  74; 6HR MAX TEMP:  79;

WILDWOOD*      CLOUDY    79  74  84 E6        29.94S
MILLVILLE      CLOUDY    79  72  79 E6        29.93F
WRIGHTSTOWN    CLOUDY    73  67  80 NE2       29.93S
MOUNT HOLLY    CLOUDY    75  67  76 CALM      29.95S
TRENTON        CLOUDY    76  64  66 N5        29.96R
6HR MIN TEMP:  72; 6HR MAX TEMP:  77;


$$
NJZ001>014-271300-
NORTHERN NEW JERSEY

CITY           SKY/WX    TMP DP  RH WIND       PRES   REMARKS
SUSSEX         SUNNY     68  65  90 CALM      29.99S
ANDOVER*         N/A     69  65  86 CALM      30.00R
MORRISTOWN     PTSUNNY   73  66  78 CALM      29.98R
NEWARK         PTSUNNY   80  63  55 N6        29.96R
TETERBORO      MOSUNNY   78  62  57 CALM      29.95S
CALDWELL       SUNNY     74  65  73 NE3       29.98R
SOMERVILLE     CLOUDY    73  65  75 NW3       29.95S
ALLAIRE*       CLOUDY    77  64  64 NE6       29.96S
TOMS RIVER*    CLOUDY    73  69  87 NE3       29.95F

$$
PAZ043-044-047-054-055-060>062-066>071-271300-
EASTERN PENNSYLVANIA

CITY           SKY/WX    TMP DP  RH WIND       PRES   REMARKS
PHILADELPHIA   CLOUDY    79  65  62 NE5       29.95S
6HR MIN TEMP:  77; 6HR MAX TEMP:  81;

NORTH PHILA    CLOUDY    79  66  64 NE6       29.97R
BLUE BELL*     CLOUDY    72  64  78 CALM      29.96S
DOYLESTOWN     CLOUDY    74  64  71 N3        29.97R
QUAKERTOWN*    CLOUDY    73  66  78 CALM      30.00R
PERKASIE*      PTSUNNY   73  66  78 CALM      30.00R
POTTSTOWN      CLOUDY    74  64  71 N5        29.99R
LANCASTER      PTSUNNY   76  64  66 NE7       29.98R
COATESVILLE    CLOUDY    75  64  69 NE3       30.00R
READING        SUNNY     76  63  64 N7        29.98R
6HR MIN TEMP:  72; 6HR MAX TEMP:  76;

ALLENTOWN      PTSUNNY   74  65  73 CALM      29.99R
6HR MIN TEMP:  68; 6HR MAX TEMP:  74;

MOUNT POCONO   SUNNY     69  61  75 NW3       30.04S
6HR MIN TEMP:  57; 6HR MAX TEMP:  69;

HAZLETON       SUNNY     68  63  83 CALM      30.06F
LEHIGHTON      FAIR      68  63  83 CALM      30.01S
WILKES BARRE   SUNNY     69  61  75 CALM      30.02S

$$
DEZALL-MDZ008-012-015-019-020-271300-
DELAWARE AND EASTERN MARYLAND

CITY           SKY/WX    TMP DP  RH WIND       PRES   REMARKS
WILMINGTON     CLOUDY   N/A N/A N/A NE10      29.95R
                                      6HR PCP: TRACE;

DOVER          PTSUNNY   82  82  99 E6        29.91F HX  95
GEORGETOWN     MOSUNNY   82  76  81 SW3       29.94S
6HR MIN TEMP:  76; 6HR MAX TEMP:  82;

EASTON         PTSUNNY   82  81  94 CALM      29.97  HX  95
ABERDEEN       PTSUNNY   79  70  73 N6        29.94R
PATUXENT       PTSUNNY   82  75  79 NW5       29.93S
OCEAN CITY     LGT RAIN  80  78  94 CALM      29.95R
WALLOPS ISLAND FAIR      81  78  91 W5        29.94S
CAMBRIDGE      PTSUNNY   79  77  94 CALM      29.94R
SALISBURY      HVY RAIN  77  74  90 N8        29.95R FOG

$$
PAZ001-021-NYZ056-072-MDZ011-DCZ001-271300-
OTHER NEARBY LOCATIONS

CITY           SKY/WX    TMP DP  RH WIND       PRES   REMARKS
HARRISBURG     MOSUNNY   77  65  66 VRB5      29.98R
STATE COLLEGE  MOSUNNY   64  63  94 CALM      30.03S
WILLIAMSPORT   SUNNY     69  61  75 CALM      30.01S
BINGHAMTON     SUNNY     66  60  81 W3        30.04S
NEW YORK CITY  MOSUNNY   78  60  53 NE5       29.99R
BALTIMORE      MOSUNNY   79  67  66 VRB6      29.94S
WASHINGTON DC  FAIR      83  72  69 N8        29.95S

$$




USA.gov is the U.S. government's official web portal to all federal, state and local government web resources and services.